| time (UTC) | temp F | wind direction | speed MPH | gust MPH | rain 1hr in | rain 24hr in | rain mn in | humidity % | barometer mb |
| 20260508092603 | 56 | 251 | 4.0 | 0.0 | 0.00 | 0.00 | 0.00 | 27 | 1022.4 |
| 20260508092030 | 56 | 244 | 6.0 | 0.0 | 0.00 | 0.00 | 0.00 | 28 | 1022.4 |
| 20260508091535 | 56 | 210 | 6.0 | 0.0 | 0.00 | 0.00 | 0.00 | 28 | 1022.4 |
| 20260508091035 | 56 | 314 | 6.0 | 0.0 | 0.00 | 0.00 | 0.00 | 27 | 1022.4 |
| 20260508090545 | 55 | 282 | 7.0 | 0.0 | 0.00 | 0.00 | 0.00 | 27 | 1022.4 |
| 20260508090031 | 55 | 292 | 7.0 | 0.0 | 0.00 | 0.00 | 0.00 | 28 | 1022.4 |
| 20260508085517 | 55 | 307 | 7.0 | 0.0 | 0.00 | 0.00 | 0.00 | 27 | 1022.4 |
| 20260508085037 | 55 | 283 | 6.0 | 0.0 | 0.00 | 0.00 | 0.00 | 28 | 1022.4 |
| 20260508084525 | 55 | 290 | 5.0 | 0.0 | 0.00 | 0.00 | 0.00 | 28 | 1022.3 |
| 20260508084047 | 55 | 259 | 6.0 | 0.0 | 0.00 | 0.00 | 0.00 | 27 | 1022.3 |
| 20260508083541 | 54 | 310 | 7.0 | 0.0 | 0.00 | 0.00 | 0.00 | 27 | 1022.3 |
| 20260508083031 | 54 | 343 | 7.0 | 0.0 | 0.00 | 0.00 | 0.00 | 28 | 1022.3 |
| 20260508082527 | 54 | 264 | 6.0 | 0.0 | 0.00 | 0.00 | 0.00 | 28 | 1022.3 |
| 20260508082043 | 54 | 340 | 5.0 | 0.0 | 0.00 | 0.00 | 0.00 | 28 | 1022.3 |
| 20260508081602 | 54 | 330 | 6.0 | 0.0 | 0.00 | 0.00 | 0.00 | 27 | 1022.3 |
| 20260508081027 | 54 | 314 | 6.0 | 0.0 | 0.00 | 0.00 | 0.00 | 28 | 1022.2 |
| 20260508080539 | 54 | 307 | 6.0 | 0.0 | 0.00 | 0.00 | 0.00 | 31 | 1022.2 |
| 20260508080027 | 54 | 271 | 5.0 | 0.0 | 0.00 | 0.00 | 0.00 | 29 | 1022.1 |
| 20260508075530 | 54 | 231 | 5.0 | 0.0 | 0.00 | 0.00 | 0.00 | 32 | 1022.1 |
| 20260508075039 | 53 | 282 | 6.0 | 0.0 | 0.00 | 0.00 | 0.00 | 31 | 1022.1 |
| 20260508074537 | 53 | 319 | 6.0 | 0.0 | 0.00 | 0.00 | 0.00 | 30 | 1022.2 |
| 20260508074020 | 53 | 296 | 4.0 | 0.0 | 0.00 | 0.00 | 0.00 | 36 | 1021.9 |
| 20260508073530 | 53 | 314 | 6.0 | 0.0 | 0.00 | 0.00 | 0.00 | 38 | 1021.9 |
| 20260508073028 | 53 | 285 | 4.0 | 0.0 | 0.00 | 0.00 | 0.00 | 36 | 1021.8 |
| 20260508072531 | 53 | 252 | 3.0 | 0.0 | 0.00 | 0.00 | 0.00 | 48 | 1021.8 |
| 20260508072035 | 53 | 281 | 4.0 | 0.0 | 0.00 | 0.00 | 0.00 | 44 | 1021.8 |
| 20260508071530 | 52 | 293 | 3.0 | 0.0 | 0.00 | 0.00 | 0.00 | 47 | 1021.7 |
| 20260508071059 | 52 | 228 | 2.0 | 0.0 | 0.00 | 0.00 | 0.00 | 48 | 1021.7 |
| 20260508070523 | 52 | 278 | 3.0 | 0.0 | 0.00 | 0.00 | 0.00 | 51 | 1021.7 |
| 20260508070101 | 52 | 285 | 4.0 | 0.0 | 0.00 | 0.00 | 0.00 | 51 | 1021.7 |
| 20260508065527 | 52 | 247 | 2.0 | 0.0 | 0.00 | 0.00 | 0.00 | 53 | 1021.5 |
| 20260508065044 | 52 | 317 | 1.0 | 0.0 | 0.00 | 0.00 | 0.00 | 55 | 1021.5 |
| 20260508064527 | 51 | 210 | 1.0 | 0.0 | 0.00 | 0.00 | 0.00 | 57 | 1021.5 |
| 20260508064032 | 51 | 210 | 2.0 | 0.0 | 0.00 | 0.00 | 0.00 | 58 | 1021.5 |
| 20260508063537 | 50 | 203 | 1.0 | 0.0 | 0.00 | 0.00 | 0.00 | 61 | 1021.5 |
| 20260508063025 | 50 | 218 | 2.0 | 0.0 | 0.00 | 0.00 | 0.00 | 59 | 1021.3 |
| 20260508062524 | 50 | 218 | 1.0 | 0.0 | 0.00 | 0.00 | 0.00 | 59 | 1021.3 |
| 20260508062055 | 50 | 204 | 0.0 | 0.0 | 0.00 | 0.00 | 0.00 | 61 | 1021.3 |
| 20260508061520 | 49 | 204 | 1.0 | 0.0 | 0.00 | 0.00 | 0.00 | 60 | 1021.2 |
| 20260508061037 | 49 | 204 | 1.0 | 0.0 | 0.00 | 0.00 | 0.00 | 61 | 1021.2 |
| 20260508060522 | 49 | 204 | 1.0 | 0.0 | 0.00 | 0.00 | 0.00 | 62 | 1021.2 |
| 20260508060055 | 49 | 203 | 1.0 | 0.0 | 0.00 | 0.00 | 0.00 | 64 | 1021.2 |
| 20260508055539 | 48 | 204 | 1.0 | 0.0 | 0.00 | 0.00 | 0.00 | 67 | 1021.0 |
| 20260508055043 | 48 | 203 | 1.0 | 0.0 | 0.00 | 0.00 | 0.00 | 68 | 1021.0 |
| 20260508054536 | 47 | 204 | 1.0 | 0.0 | 0.00 | 0.00 | 0.00 | 70 | 1021.0 |
| 20260508054021 | 46 | 200 | 1.0 | 0.0 | 0.00 | 0.00 | 0.00 | 70 | 1020.8 |
| 20260508053527 | 46 | 200 | 1.0 | 0.0 | 0.00 | 0.00 | 0.00 | 72 | 1020.8 |
| 20260508053021 | 46 | 200 | 2.0 | 0.0 | 0.00 | 0.00 | 0.00 | 72 | 1020.6 |
| 20260508052526 | 45 | 194 | 1.0 | 0.0 | 0.00 | 0.00 | 0.00 | 73 | 1020.6 |
| 20260508052029 | 45 | 217 | 1.0 | 0.0 | 0.00 | 0.00 | 0.00 | 75 | 1020.6 |
| 20260508051547 | 44 | 217 | 0.0 | 0.0 | 0.00 | 0.00 | 0.00 | 77 | 1020.4 |
| 20260508051103 | 43 | 217 | 0.0 | 0.0 | 0.00 | 0.00 | 0.00 | 79 | 1020.4 |
| 20260508050548 | 43 | 217 | 0.0 | 0.0 | 0.00 | 0.00 | 0.00 | 81 | 1020.4 |
| 20260508050050 | 42 | 217 | 0.0 | 0.0 | 0.00 | 0.00 | 0.00 | 84 | 1020.4 |
| 20260508045534 | 41 | 217 | 1.0 | 0.0 | 0.00 | 0.00 | 0.00 | 85 | 1020.3 |
| 20260508045021 | 40 | 217 | 1.0 | 0.0 | 0.00 | 0.00 | 0.00 | 87 | 1020.3 |
| 20260508044555 | 39 | 217 | 1.0 | 0.0 | 0.00 | 0.00 | 0.00 | 90 | 1020.3 |
| 20260508044039 | 39 | 217 | 0.0 | 0.0 | 0.00 | 0.00 | 0.00 | 92 | 1020.2 |
| 20260508043524 | 38 | 217 | 0.0 | 0.0 | 0.00 | 0.00 | 0.00 | 94 | 1020.2 |
| 20260508043040 | 37 | 217 | 0.0 | 0.0 | 0.00 | 0.00 | 0.00 | 95 | 1020.2 |
| 20260508042541 | 37 | 217 | 0.0 | 0.0 | 0.00 | 0.00 | 0.00 | 96 | 1020.1 |
| 20260508042027 | 36 | 221 | 0.0 | 0.0 | 0.00 | 0.00 | 0.00 | 97 | 1020.1 |
| 20260508041542 | 35 | 221 | 0.0 | 0.0 | 0.00 | 0.00 | 0.00 | 97 | 1020.1 |
| 20260508041026 | 34 | 217 | 0.0 | 0.0 | 0.00 | 0.00 | 0.00 | 97 | 1019.9 |
| 20260508040531 | 34 | 217 | 0.0 | 0.0 | 0.00 | 0.00 | 0.00 | 97 | 1019.9 |
| 20260508040030 | 33 | 217 | 1.0 | 0.0 | 0.00 | 0.00 | 0.00 | 97 | 1019.7 |
| 20260508035607 | 33 | 217 | 1.0 | 0.0 | 0.00 | 0.00 | 0.00 | 97 | 1019.7 |
| 20260508035054 | 32 | 223 | 1.0 | 0.0 | 0.00 | 0.00 | 0.00 | 96 | 1019.7 |
| 20260508034608 | 32 | 224 | 1.0 | 0.0 | 0.00 | 0.00 | 0.00 | 96 | 1019.7 |
| 20260508034033 | 31 | 238 | 1.0 | 0.0 | 0.00 | 0.00 | 0.00 | 96 | 1019.6 |
| 20260508033524 | 31 | 238 | 1.0 | 0.0 | 0.00 | 0.00 | 0.00 | 96 | 1019.6 |
| 20260508033029 | 30 | 238 | 1.0 | 0.0 | 0.00 | 0.00 | 0.00 | 96 | 1019.5 |
| 20260508032540 | 29 | 238 | 0.0 | 0.0 | 0.00 | 0.00 | 0.00 | 95 | 1019.5 |
| 20260508032026 | 29 | 241 | 1.0 | 0.0 | 0.00 | 0.00 | 0.00 | 95 | 1019.5 |
| 20260508031534 | 29 | 241 | 1.0 | 0.0 | 0.00 | 0.00 | 0.00 | 94 | 1019.5 |
| 20260508031033 | 29 | 242 | 0.0 | 0.0 | 0.00 | 0.00 | 0.00 | 94 | 1019.3 |
| 20260508030539 | 29 | 242 | 0.0 | 0.0 | 0.00 | 0.00 | 0.00 | 94 | 1019.3 |
| 20260508030029 | 28 | 242 | 0.0 | 0.0 | 0.00 | 0.00 | 0.00 | 94 | 1019.2 |
| 20260508025552 | 28 | 242 | 0.0 | 0.0 | 0.00 | 0.00 | 0.00 | 94 | 1019.2 |
| 20260508025021 | 28 | 242 | 0.0 | 0.0 | 0.00 | 0.00 | 0.00 | 93 | 1019.2 |
| 20260508024530 | 28 | 242 | 0.0 | 0.0 | 0.00 | 0.00 | 0.00 | 93 | 1019.1 |
| 20260508024020 | 28 | 242 | 0.0 | 0.0 | 0.00 | 0.00 | 0.00 | 93 | 1019.1 |
| 20260508023530 | 28 | 242 | 0.0 | 0.0 | 0.00 | 0.00 | 0.00 | 93 | 1019.1 |
| 20260508023030 | 28 | 242 | 0.0 | 0.0 | 0.00 | 0.00 | 0.00 | 92 | 1019.0 |
| 20260508022545 | 28 | 242 | 0.0 | 0.0 | 0.00 | 0.00 | 0.00 | 92 | 1019.0 |
| 20260508022042 | 28 | 242 | 0.0 | 0.0 | 0.00 | 0.00 | 0.00 | 92 | 1019.0 |
| 20260508021534 | 28 | 242 | 0.0 | 0.0 | 0.00 | 0.00 | 0.00 | 92 | 1019.0 |
| 20260508021021 | 28 | 242 | 0.0 | 0.0 | 0.00 | 0.00 | 0.00 | 92 | 1018.9 |
| 20260508020525 | 28 | 242 | 0.0 | 0.0 | 0.00 | 0.00 | 0.00 | 92 | 1018.9 |
| 20260508020047 | 28 | 242 | 0.0 | 0.0 | 0.00 | 0.00 | 0.00 | 92 | 1018.7 |
| 20260508015552 | 28 | 242 | 0.0 | 0.0 | 0.00 | 0.00 | 0.00 | 91 | 1018.7 |
| 20260508015020 | 28 | 242 | 0.0 | 0.0 | 0.00 | 0.00 | 0.00 | 91 | 1018.7 |
| 20260508014537 | 28 | 242 | 0.0 | 0.0 | 0.00 | 0.00 | 0.00 | 91 | 1018.7 |
| 20260508014021 | 28 | 242 | 0.0 | 0.0 | 0.00 | 0.00 | 0.00 | 91 | 1018.6 |
| 20260508013539 | 28 | 242 | 0.0 | 0.0 | 0.00 | 0.00 | 0.00 | 91 | 1018.6 |
| 20260508013030 | 28 | 242 | 0.0 | 0.0 | 0.00 | 0.00 | 0.00 | 91 | 1018.5 |
| 20260508012519 | 28 | 242 | 0.0 | 0.0 | 0.00 | 0.00 | 0.00 | 90 | 1018.5 |
| 20260508012026 | 28 | 242 | 0.0 | 0.0 | 0.00 | 0.00 | 0.00 | 90 | 1018.5 |
| 20260508011542 | 28 | 242 | 0.0 | 0.0 | 0.00 | 0.00 | 0.00 | 90 | 1018.5 |
| 20260508011053 | 28 | 242 | 0.0 | 0.0 | 0.00 | 0.00 | 0.00 | 90 | 1018.3 |
| 20260508010522 | 28 | 242 | 0.0 | 0.0 | 0.00 | 0.00 | 0.00 | 89 | 1018.3 |
| 20260508010044 | 29 | 242 | 0.0 | 0.0 | 0.00 | 0.00 | 0.00 | 89 | 1018.3 |
| 20260508005531 | 29 | 242 | 0.0 | 0.0 | 0.00 | 0.00 | 0.00 | 89 | 1018.1 |
| 20260508005022 | 29 | 242 | 0.0 | 0.0 | 0.00 | 0.00 | 0.00 | 89 | 1018.1 |
| 20260508004601 | 29 | 242 | 0.0 | 0.0 | 0.00 | 0.00 | 0.00 | 89 | 1018.2 |
| 20260508004025 | 29 | 242 | 0.0 | 0.0 | 0.00 | 0.00 | 0.00 | 88 | 1018.1 |
| 20260508003600 | 29 | 242 | 0.0 | 0.0 | 0.00 | 0.00 | 0.00 | 88 | 1018.1 |
| 20260508003026 | 29 | 242 | 0.0 | 0.0 | 0.00 | 0.00 | 0.00 | 88 | 1018.0 |
| 20260508002533 | 29 | 242 | 0.0 | 0.0 | 0.00 | 0.00 | 0.00 | 88 | 1018.0 |
| 20260508002021 | 30 | 242 | 0.0 | 0.0 | 0.00 | 0.00 | 0.00 | 88 | 1018.0 |
| 20260508001539 | 30 | 242 | 0.0 | 0.0 | 0.00 | 0.00 | 0.00 | 88 | 1018.0 |
| 20260508001043 | 30 | 242 | 0.0 | 0.0 | 0.00 | 0.00 | 0.00 | 88 | 1017.8 |
| 20260508000531 | 30 | 242 | 0.0 | 0.0 | 0.00 | 0.00 | 0.00 | 88 | 1017.8 |
| 20260508000049 | 30 | 242 | 0.0 | 0.0 | 0.00 | 0.00 | 0.00 | 87 | 1017.8 |
| 20260507235535 | 30 | 242 | 0.0 | 0.0 | 0.00 | 0.00 | 0.00 | 87 | 1017.6 |
| 20260507235044 | 30 | 242 | 0.0 | 0.0 | 0.00 | 0.00 | 0.00 | 86 | 1017.6 |
| 20260507234539 | 30 | 242 | 0.0 | 0.0 | 0.00 | 0.00 | 0.00 | 86 | 1017.6 |
| 20260507234048 | 30 | 242 | 0.0 | 0.0 | 0.00 | 0.00 | 0.00 | 86 | 1017.6 |
| 20260507233542 | 31 | 242 | 0.0 | 0.0 | 0.00 | 0.00 | 0.00 | 86 | 1017.6 |
| 20260507233030 | 31 | 242 | 0.0 | 0.0 | 0.00 | 0.00 | 0.00 | 86 | 1017.4 |
| 20260507232539 | 31 | 242 | 0.0 | 0.0 | 0.00 | 0.00 | 0.00 | 85 | 1017.4 |
| 20260507232038 | 31 | 242 | 0.0 | 0.0 | 0.00 | 0.00 | 0.00 | 85 | 1017.4 |
| 20260507231523 | 31 | 242 | 0.0 | 0.0 | 0.00 | 0.00 | 0.00 | 85 | 1017.2 |
| 20260507231033 | 31 | 242 | 0.0 | 0.0 | 0.00 | 0.00 | 0.00 | 85 | 1017.2 |
| 20260507230523 | 31 | 242 | 0.0 | 0.0 | 0.00 | 0.00 | 0.00 | 85 | 1017.2 |
| 20260507230044 | 31 | 242 | 0.0 | 0.0 | 0.00 | 0.00 | 0.00 | 85 | 1017.1 |
| 20260507225532 | 31 | 242 | 0.0 | 0.0 | 0.00 | 0.00 | 0.00 | 85 | 1017.1 |
| 20260507225023 | 32 | 242 | 0.0 | 0.0 | 0.00 | 0.00 | 0.00 | 85 | 1017.1 |
| 20260507224538 | 32 | 242 | 0.0 | 0.0 | 0.00 | 0.00 | 0.00 | 85 | 1017.1 |
| 20260507224026 | 32 | 242 | 0.0 | 0.0 | 0.00 | 0.00 | 0.00 | 85 | 1017.0 |
| 20260507223530 | 32 | 242 | 0.0 | 0.0 | 0.00 | 0.00 | 0.00 | 85 | 1017.0 |
| 20260507223050 | 31 | 242 | 0.0 | 0.0 | 0.00 | 0.00 | 0.00 | 85 | 1016.9 |
| 20260507222535 | 31 | 242 | 0.0 | 0.0 | 0.00 | 0.00 | 0.00 | 85 | 1016.9 |
| 20260507222026 | 31 | 274 | 0.0 | 0.0 | 0.00 | 0.00 | 0.00 | 85 | 1016.9 |
| 20260507221542 | 31 | 274 | 0.0 | 0.0 | 0.00 | 0.00 | 0.00 | 85 | 1016.9 |
| 20260507221050 | 31 | 275 | 0.0 | 0.0 | 0.00 | 0.00 | 0.00 | 84 | 1016.8 |
| 20260507220549 | 31 | 275 | 0.0 | 0.0 | 0.00 | 0.00 | 0.00 | 84 | 1016.8 |
| 20260507220035 | 31 | 275 | 0.0 | 0.0 | 0.00 | 0.00 | 0.00 | 84 | 1016.8 |
| 20260507215539 | 31 | 275 | 0.0 | 0.0 | 0.00 | 0.00 | 0.00 | 83 | 1016.6 |
| 20260507215026 | 32 | 275 | 0.0 | 0.0 | 0.00 | 0.00 | 0.00 | 83 | 1016.6 |
| 20260507214531 | 32 | 275 | 0.0 | 0.0 | 0.00 | 0.00 | 0.00 | 82 | 1016.5 |
| 20260507214046 | 32 | 275 | 0.0 | 0.0 | 0.00 | 0.00 | 0.00 | 82 | 1016.5 |
| 20260507213534 | 32 | 275 | 0.0 | 0.0 | 0.00 | 0.00 | 0.00 | 81 | 1016.5 |
| 20260507213023 | 32 | 275 | 0.0 | 0.0 | 0.00 | 0.00 | 0.00 | 81 | 1016.4 |
| 20260507212541 | 32 | 275 | 0.0 | 0.0 | 0.00 | 0.00 | 0.00 | 80 | 1016.4 |
| 20260507212053 | 33 | 275 | 0.0 | 0.0 | 0.00 | 0.00 | 0.00 | 80 | 1016.4 |
| 20260507211522 | 33 | 275 | 0.0 | 0.0 | 0.00 | 0.00 | 0.00 | 80 | 1016.1 |
| 20260507211040 | 33 | 275 | 0.0 | 0.0 | 0.00 | 0.00 | 0.00 | 80 | 1016.1 |
| 20260507210528 | 33 | 275 | 0.0 | 0.0 | 0.00 | 0.00 | 0.00 | 79 | 1016.1 |
| 20260507210103 | 33 | 275 | 0.0 | 0.0 | 0.00 | 0.00 | 0.00 | 78 | 1016.1 |
| 20260507205534 | 34 | 275 | 0.0 | 0.0 | 0.00 | 0.00 | 0.00 | 78 | 1016.0 |
| 20260507205041 | 34 | 275 | 0.0 | 0.0 | 0.00 | 0.00 | 0.00 | 78 | 1016.0 |
| 20260507204528 | 34 | 275 | 0.0 | 0.0 | 0.00 | 0.00 | 0.00 | 77 | 1016.0 |
| 20260507204106 | 34 | 275 | 0.0 | 0.0 | 0.00 | 0.00 | 0.00 | 77 | 1016.0 |
| 20260507203534 | 34 | 275 | 0.0 | 0.0 | 0.00 | 0.00 | 0.00 | 77 | 1016.0 |
| 20260507203040 | 35 | 275 | 0.0 | 0.0 | 0.00 | 0.00 | 0.00 | 76 | 1016.0 |
| 20260507202559 | 35 | 275 | 0.0 | 0.0 | 0.00 | 0.00 | 0.00 | 76 | 1015.7 |
| 20260507202024 | 35 | 275 | 0.0 | 0.0 | 0.00 | 0.00 | 0.00 | 75 | 1015.7 |
| 20260507201546 | 36 | 275 | 0.0 | 0.0 | 0.00 | 0.00 | 0.00 | 73 | 1015.6 |
| 20260507201042 | 36 | 275 | 0.0 | 0.0 | 0.00 | 0.00 | 0.00 | 73 | 1015.6 |
| 20260507200531 | 36 | 275 | 0.0 | 0.0 | 0.00 | 0.00 | 0.00 | 72 | 1015.6 |
| 20260507200051 | 37 | 275 | 0.0 | 0.0 | 0.00 | 0.00 | 0.00 | 72 | 1015.5 |
| 20260507195539 | 37 | 275 | 0.0 | 0.0 | 0.00 | 0.00 | 0.00 | 70 | 1015.5 |
| 20260507195028 | 38 | 275 | 0.0 | 0.0 | 0.00 | 0.00 | 0.00 | 70 | 1015.5 |
| 20260507194551 | 38 | 275 | 0.0 | 0.0 | 0.00 | 0.00 | 0.00 | 69 | 1015.2 |
| 20260507194039 | 38 | 275 | 0.0 | 0.0 | 0.00 | 0.00 | 0.00 | 68 | 1015.2 |
| 20260507193529 | 39 | 275 | 0.0 | 0.0 | 0.00 | 0.00 | 0.00 | 68 | 1015.2 |
| 20260507193028 | 39 | 275 | 0.0 | 0.0 | 0.00 | 0.00 | 0.00 | 67 | 1015.0 |
| 20260507192520 | 40 | 275 | 0.0 | 0.0 | 0.00 | 0.00 | 0.00 | 66 | 1015.0 |
| 20260507192027 | 40 | 275 | 0.0 | 0.0 | 0.00 | 0.00 | 0.00 | 65 | 1015.0 |
| 20260507191543 | 41 | 275 | 1.0 | 0.0 | 0.00 | 0.00 | 0.00 | 64 | 1015.0 |
| 20260507191102 | 41 | 275 | 1.0 | 0.0 | 0.00 | 0.00 | 0.00 | 63 | 1015.0 |
| 20260507190528 | 41 | 275 | 1.0 | 0.0 | 0.00 | 0.00 | 0.00 | 63 | 1015.0 |
| 20260507190039 | 41 | 268 | 2.0 | 0.0 | 0.00 | 0.00 | 0.00 | 62 | 1015.0 |
| 20260507185526 | 42 | 266 | 3.0 | 0.0 | 0.00 | 0.00 | 0.00 | 62 | 1014.9 |
| 20260507185028 | 42 | 257 | 3.0 | 0.0 | 0.00 | 0.00 | 0.00 | 61 | 1014.9 |
| 20260507184525 | 42 | 258 | 3.0 | 0.0 | 0.00 | 0.00 | 0.00 | 61 | 1014.6 |
| 20260507184034 | 42 | 281 | 3.0 | 0.0 | 0.00 | 0.00 | 0.00 | 60 | 1014.6 |
| 20260507183522 | 43 | 279 | 4.0 | 0.0 | 0.00 | 0.00 | 0.00 | 60 | 1014.6 |
| 20260507183032 | 43 | 258 | 3.0 | 0.0 | 0.00 | 0.00 | 0.00 | 60 | 1014.5 |
| 20260507182527 | 43 | 290 | 3.0 | 0.0 | 0.00 | 0.00 | 0.00 | 59 | 1014.5 |
| 20260507182026 | 43 | 290 | 3.0 | 0.0 | 0.00 | 0.00 | 0.00 | 59 | 1014.5 |
| 20260507181531 | 44 | 300 | 3.0 | 0.0 | 0.00 | 0.00 | 0.00 | 59 | 1014.4 |
| 20260507181039 | 44 | 272 | 4.0 | 0.0 | 0.00 | 0.00 | 0.00 | 58 | 1014.4 |
| 20260507180532 | 44 | 293 | 5.0 | 0.0 | 0.00 | 0.00 | 0.00 | 57 | 1014.4 |
| 20260507180030 | 44 | 276 | 4.0 | 0.0 | 0.00 | 0.00 | 0.00 | 57 | 1014.2 |
| 20260507175536 | 44 | 274 | 4.0 | 0.0 | 0.00 | 0.00 | 0.00 | 56 | 1014.2 |
| 20260507175025 | 44 | 285 | 5.0 | 0.0 | 0.00 | 0.00 | 0.00 | 55 | 1014.2 |
| 20260507174605 | 45 | 259 | 5.0 | 0.0 | 0.00 | 0.00 | 0.00 | 54 | 1014.2 |
| 20260507174034 | 45 | 245 | 5.0 | 0.0 | 0.00 | 0.00 | 0.00 | 53 | 1014.0 |
| 20260507173521 | 45 | 274 | 6.0 | 0.0 | 0.00 | 0.00 | 0.00 | 52 | 1014.0 |
| 20260507173035 | 45 | 252 | 6.0 | 0.0 | 0.00 | 0.00 | 0.00 | 51 | 1014.0 |
| 20260507172523 | 46 | 274 | 5.0 | 0.0 | 0.00 | 0.00 | 0.00 | 49 | 1013.9 |
| 20260507172032 | 46 | 281 | 6.0 | 0.0 | 0.00 | 0.00 | 0.00 | 48 | 1013.9 |
| 20260507171532 | 46 | 278 | 9.0 | 0.0 | 0.00 | 0.00 | 0.00 | 49 | 1013.7 |
| 20260507171039 | 46 | 241 | 7.0 | 0.0 | 0.00 | 0.00 | 0.00 | 47 | 1013.7 |
| 20260507170526 | 47 | 278 | 5.0 | 0.0 | 0.00 | 0.00 | 0.00 | 51 | 1013.7 |
| 20260507170042 | 47 | 278 | 6.0 | 0.0 | 0.00 | 0.00 | 0.00 | 51 | 1013.7 |
| 20260507165527 | 47 | 254 | 8.0 | 0.0 | 0.00 | 0.00 | 0.00 | 49 | 1013.5 |
| 20260507165036 | 47 | 255 | 7.0 | 0.0 | 0.00 | 0.00 | 0.00 | 47 | 1013.5 |
| 20260507164524 | 48 | 295 | 6.0 | 0.0 | 0.00 | 0.00 | 0.00 | 46 | 1013.3 |
| 20260507164032 | 48 | 265 | 7.0 | 0.0 | 0.00 | 0.00 | 0.00 | 45 | 1013.3 |
| 20260507163526 | 48 | 290 | 8.0 | 0.0 | 0.00 | 0.00 | 0.00 | 44 | 1013.3 |
| 20260507163030 | 48 | 288 | 8.0 | 0.0 | 0.00 | 0.00 | 0.00 | 45 | 1013.1 |
| 20260507162523 | 48 | 272 | 6.0 | 0.0 | 0.00 | 0.00 | 0.00 | 44 | 1013.1 |
| 20260507162032 | 49 | 257 | 6.0 | 0.0 | 0.00 | 0.00 | 0.00 | 44 | 1013.1 |
| 20260507161530 | 48 | 216 | 6.0 | 0.0 | 0.00 | 0.00 | 0.00 | 43 | 1013.0 |
| 20260507161020 | 49 | 289 | 6.0 | 0.0 | 0.00 | 0.00 | 0.00 | 40 | 1013.0 |
| 20260507160530 | 49 | 255 | 6.0 | 0.0 | 0.00 | 0.00 | 0.00 | 41 | 1013.0 |
| 20260507160049 | 49 | 218 | 5.0 | 0.0 | 0.00 | 0.00 | 0.00 | 41 | 1013.0 |
| 20260507155556 | 49 | 250 | 6.0 | 0.0 | 0.00 | 0.00 | 0.00 | 41 | 1012.9 |
| 20260507155057 | 50 | 275 | 6.0 | 0.0 | 0.00 | 0.00 | 0.00 | 40 | 1013.0 |
| 20260507154522 | 50 | 293 | 5.0 | 0.0 | 0.00 | 0.00 | 0.00 | 39 | 1012.8 |
| 20260507154025 | 50 | 276 | 4.0 | 0.0 | 0.00 | 0.00 | 0.00 | 41 | 1012.8 |
| 20260507153541 | 50 | 279 | 6.0 | 0.0 | 0.00 | 0.00 | 0.00 | 40 | 1012.8 |
| 20260507153028 | 50 | 250 | 8.0 | 0.0 | 0.00 | 0.00 | 0.00 | 43 | 1012.6 |
| 20260507152533 | 49 | 258 | 8.0 | 0.0 | 0.00 | 0.00 | 0.00 | 42 | 1012.6 |
| 20260507152045 | 49 | 233 | 9.0 | 0.0 | 0.00 | 0.00 | 0.00 | 41 | 1012.6 |
| 20260507151541 | 49 | 279 | 9.0 | 0.0 | 0.00 | 0.00 | 0.00 | 41 | 1012.6 |
| 20260507151031 | 49 | 255 | 8.0 | 0.0 | 0.00 | 0.00 | 0.00 | 40 | 1012.5 |
| 20260507150540 | 50 | 319 | 9.0 | 0.0 | 0.00 | 0.00 | 0.00 | 40 | 1012.5 |
| 20260507150037 | 50 | 245 | 8.0 | 0.0 | 0.00 | 0.00 | 0.00 | 36 | 1012.5 |
| 20260507145521 | 50 | 310 | 8.0 | 0.0 | 0.00 | 0.00 | 0.00 | 37 | 1012.4 |
| 20260507145028 | 50 | 272 | 6.0 | 0.0 | 0.00 | 0.00 | 0.00 | 36 | 1012.4 |
| 20260507144524 | 50 | 245 | 6.0 | 0.0 | 0.00 | 0.00 | 0.00 | 39 | 1012.2 |
| 20260507144032 | 51 | 247 | 7.0 | 0.0 | 0.00 | 0.00 | 0.00 | 38 | 1012.2 |
| 20260507143539 | 51 | 233 | 8.0 | 0.0 | 0.00 | 0.00 | 0.00 | 37 | 1012.3 |
| 20260507143059 | 51 | 269 | 6.0 | 0.0 | 0.00 | 0.00 | 0.00 | 40 | 1012.3 |
| 20260507142524 | 51 | 258 | 7.0 | 0.0 | 0.00 | 0.00 | 0.00 | 44 | 1011.9 |
| 20260507142031 | 51 | 257 | 7.0 | 0.0 | 0.00 | 0.00 | 0.00 | 45 | 1011.9 |
| 20260507141552 | 51 | 274 | 6.0 | 0.0 | 0.00 | 0.00 | 0.00 | 43 | 1011.8 |
| 20260507141023 | 51 | 223 | 5.0 | 0.0 | 0.00 | 0.00 | 0.00 | 43 | 1011.8 |
| 20260507140541 | 52 | 238 | 5.0 | 0.0 | 0.00 | 0.00 | 0.00 | 41 | 1011.8 |
| 20260507140057 | 52 | 285 | 4.0 | 0.0 | 0.00 | 0.00 | 0.00 | 44 | 1011.8 |
| 20260507135535 | 53 | 221 | 4.0 | 0.0 | 0.00 | 0.00 | 0.00 | 43 | 1011.8 |
| 20260507135032 | 53 | 192 | 5.0 | 0.0 | 0.00 | 0.00 | 0.00 | 43 | 1011.8 |
| 20260507134539 | 53 | 254 | 5.0 | 0.0 | 0.00 | 0.00 | 0.00 | 41 | 1011.8 |
| 20260507134027 | 54 | 173 | 5.0 | 0.0 | 0.00 | 0.00 | 0.00 | 41 | 1011.5 |
| 20260507133543 | 54 | 233 | 6.0 | 0.0 | 0.00 | 0.00 | 0.00 | 38 | 1011.5 |
| 20260507133028 | 53 | 223 | 4.0 | 0.0 | 0.00 | 0.00 | 0.00 | 40 | 1011.5 |
| 20260507132537 | 52 | 186 | 3.0 | 0.0 | 0.00 | 0.00 | 0.00 | 49 | 1011.5 |
| 20260507132027 | 51 | 261 | 3.0 | 0.0 | 0.00 | 0.00 | 0.00 | 46 | 1011.5 |
| 20260507131544 | 52 | 180 | 4.0 | 0.0 | 0.00 | 0.00 | 0.00 | 47 | 1011.5 |
| 20260507131057 | 53 | 185 | 5.0 | 0.0 | 0.00 | 0.00 | 0.00 | 44 | 1011.4 |
| 20260507130523 | 53 | 240 | 4.0 | 0.0 | 0.00 | 0.00 | 0.00 | 43 | 1011.4 |
| 20260507130046 | 54 | 213 | 5.0 | 0.0 | 0.00 | 0.00 | 0.00 | 41 | 1011.3 |
| 20260507125529 | 55 | 203 | 5.0 | 0.0 | 0.00 | 0.00 | 0.00 | 40 | 1011.3 |
| 20260507125047 | 55 | 206 | 5.0 | 0.0 | 0.00 | 0.00 | 0.00 | 43 | 1011.3 |
| 20260507124530 | 55 | 218 | 5.0 | 0.0 | 0.00 | 0.00 | 0.00 | 44 | 1011.4 |
| 20260507124032 | 55 | 146 | 4.0 | 0.0 | 0.00 | 0.00 | 0.00 | 45 | 1011.4 |
| 20260507123554 | 54 | 168 | 3.0 | 0.0 | 0.00 | 0.00 | 0.00 | 46 | 1011.4 |
| 20260507123021 | 53 | 186 | 4.0 | 0.0 | 0.00 | 0.00 | 0.00 | 45 | 1011.4 |
| 20260507122558 | 54 | 193 | 4.0 | 0.0 | 0.00 | 0.00 | 0.00 | 44 | 1011.4 |
| 20260507122046 | 54 | 218 | 6.0 | 0.0 | 0.00 | 0.00 | 0.00 | 43 | 1011.4 |
| 20260507121521 | 53 | 152 | 6.0 | 0.0 | 0.00 | 0.00 | 0.00 | 45 | 1011.3 |
| 20260507121028 | 53 | 168 | 6.0 | 0.0 | 0.00 | 0.00 | 0.00 | 43 | 1011.3 |
| 20260507120546 | 54 | 176 | 5.0 | 0.0 | 0.00 | 0.00 | 0.00 | 40 | 1011.3 |
| 20260507120030 | 53 | 170 | 5.0 | 0.0 | 0.00 | 0.00 | 0.00 | 44 | 1011.5 |
| 20260507115547 | 53 | 200 | 6.0 | 0.0 | 0.00 | 0.00 | 0.00 | 46 | 1011.5 |
| 20260507115100 | 53 | 183 | 5.0 | 0.0 | 0.00 | 0.00 | 0.00 | 41 | 1011.5 |
| 20260507114601 | 54 | 190 | 5.0 | 0.0 | 0.00 | 0.00 | 0.00 | 41 | 1011.5 |
| 20260507114026 | 55 | 209 | 6.0 | 0.0 | 0.00 | 0.00 | 0.00 | 41 | 1011.4 |
| 20260507113542 | 54 | 220 | 7.0 | 0.0 | 0.00 | 0.00 | 0.00 | 41 | 1011.4 |
| 20260507113028 | 54 | 163 | 6.0 | 0.0 | 0.00 | 0.00 | 0.00 | 41 | 1011.4 |
| 20260507112543 | 53 | 190 | 5.0 | 0.0 | 0.00 | 0.00 | 0.00 | 46 | 1011.4 |
| 20260507112022 | 52 | 187 | 6.0 | 0.0 | 0.00 | 0.00 | 0.00 | 39 | 1011.4 |
| 20260507111601 | 52 | 187 | 6.0 | 0.0 | 0.00 | 0.00 | 0.00 | 36 | 1011.4 |
| 20260507111026 | 52 | 187 | 4.0 | 0.0 | 0.00 | 0.00 | 0.00 | 39 | 1011.3 |
| 20260507110535 | 52 | 192 | 4.0 | 0.0 | 0.00 | 0.00 | 0.00 | 39 | 1011.3 |
| 20260507110050 | 51 | 206 | 4.0 | 0.0 | 0.00 | 0.00 | 0.00 | 35 | 1011.3 |
| 20260507105537 | 51 | 182 | 4.0 | 0.0 | 0.00 | 0.00 | 0.00 | 36 | 1011.3 |
| 20260507105023 | 52 | 180 | 3.0 | 0.0 | 0.00 | 0.00 | 0.00 | 35 | 1011.3 |
| 20260507104530 | 51 | 182 | 4.0 | 0.0 | 0.00 | 0.00 | 0.00 | 37 | 1011.3 |
| 20260507104021 | 51 | 178 | 4.0 | 0.0 | 0.00 | 0.00 | 0.00 | 33 | 1011.3 |
| 20260507103539 | 51 | 152 | 3.0 | 0.0 | 0.00 | 0.00 | 0.00 | 33 | 1011.3 |
| 20260507103028 | 51 | 156 | 4.0 | 0.0 | 0.00 | 0.00 | 0.00 | 35 | 1011.3 |
| 20260507102539 | 51 | 166 | 4.0 | 0.0 | 0.00 | 0.00 | 0.00 | 34 | 1011.3 |
| 20260507102029 | 51 | 186 | 4.0 | 0.0 | 0.00 | 0.00 | 0.00 | 35 | 1011.3 |
| 20260507101529 | 51 | 199 | 3.0 | 0.0 | 0.00 | 0.00 | 0.00 | 32 | 1011.3 |
| 20260507101100 | 51 | 156 | 3.0 | 0.0 | 0.00 | 0.00 | 0.00 | 36 | 1011.3 |
| 20260507100529 | 51 | 158 | 3.0 | 0.0 | 0.00 | 0.00 | 0.00 | 34 | 1011.3 |
| 20260507100029 | 51 | 189 | 3.0 | 0.0 | 0.00 | 0.00 | 0.00 | 35 | 1011.3 |
| 20260507095600 | 51 | 158 | 3.0 | 0.0 | 0.00 | 0.00 | 0.00 | 35 | 1011.3 |
| 20260507095027 | 51 | 226 | 4.0 | 0.0 | 0.00 | 0.00 | 0.00 | 32 | 1011.3 |
| 20260507094544 | 51 | 163 | 3.0 | 0.0 | 0.00 | 0.00 | 0.00 | 35 | 1011.3 |
| 20260507094028 | 52 | 179 | 3.0 | 0.0 | 0.00 | 0.00 | 0.00 | 29 | 1011.3 |
| 20260507093608 | 52 | 172 | 3.0 | 0.0 | 0.00 | 0.00 | 0.00 | 29 | 1011.3 |
| 20260507093038 | 52 | 145 | 3.0 | 0.0 | 0.00 | 0.00 | 0.00 | 31 | 1011.3 |